FW1358 Weather Reports


time (UTC)temp
C
wind
direction
speed
KPH
gust
KPH
rain 1hr
cm
rain 24hr
cm
rain mn
cm
humidity
%
barometer
mb
20260503184803 21 221 0.0 0.0 0.00 0.10 0.00 36 1020.3
20260503184304 20 221 0.0 0.0 0.00 0.10 0.00 33 1020.4
20260503183303 20 221 0.0 1.6 0.00 0.10 0.00 36 1020.6
20260503182804 20 221 0.0 1.6 0.00 0.10 0.00 35 1020.6
20260503180303 19 269 0.0 0.0 0.00 0.10 0.00 37 1020.9
20260503173803 18 269 0.0 0.0 0.00 0.10 0.00 38 1021.3
20260503172803 18 269 0.0 0.0 0.00 0.10 0.00 38 1021.6
20260503171303 17 269 0.0 0.0 0.00 0.10 0.00 38 1021.7
20260503170803 17 269 0.0 0.0 0.00 0.10 0.00 42 1021.9
20260503150803 11 269 0.0 0.0 0.00 0.10 0.00 80 1022.7
20260503150303 11 269 0.0 0.0 0.00 0.10 0.00 80 1022.6
20260503140303 7 269 0.0 0.0 0.00 0.10 0.00 94 1022.6
20260503130803 6 150 0.0 0.0 0.00 0.10 0.00 94 1022.5
20260503130303 5 150 0.0 0.0 0.00 0.10 0.00 94 1022.5
20260503110803 3 224 0.0 0.0 0.00 0.10 0.00 90 1021.3
20260503110303 3 224 0.0 0.0 0.00 0.10 0.00 89 1021.3
20260503080803 5 224 0.0 0.0 0.00 0.10 0.00 87 1020.5
20260503072803 6 224 0.0 0.0 0.00 0.10 0.00 88 1020.4
20260503071303 6 224 0.0 0.0 0.00 0.10 0.00 89 1020.3
20260503070303 7 224 0.0 0.0 0.00 0.10 0.00 89 1020.3
20260503060303 7 224 0.0 0.0 0.00 0.10 0.00 88 1020.4
20260503054303 7 224 0.0 0.0 0.00 0.10 0.00 87 1020.5
20260503053803 7 224 0.0 0.0 0.00 0.10 0.00 87 1020.4
20260503053303 7 224 0.0 0.0 0.00 0.10 0.00 87 1020.5
20260503052803 7 224 0.0 0.0 0.00 0.10 0.00 87 1020.4
20260503052305 7 224 0.0 0.0 0.00 0.10 0.00 87 1020.4
20260503051303 7 224 0.0 0.0 0.00 0.10 0.00 87 1020.3
20260503050303 7 224 0.0 0.0 0.00 0.10 0.00 87 1020.1
20260503045305 7 224 0.0 0.0 0.00 0.10 0.10 87 1020.0
20260503044803 7 224 0.0 0.0 0.00 0.10 0.10 87 1020.0
20260503044304 7 224 0.0 0.0 0.00 0.10 0.10 87 1020.0
20260503043803 7 224 0.0 0.0 0.00 0.10 0.10 87 1020.0
20260503043303 7 224 0.0 0.0 0.00 0.10 0.10 88 1020.0
20260503041803 8 224 0.0 0.0 0.00 0.10 0.10 87 1020.0
20260503041303 8 224 0.0 0.0 0.00 0.10 0.10 87 1019.9
20260503040803 8 224 0.0 0.0 0.00 0.10 0.10 87 1019.8
20260503035304 8 224 0.0 0.0 0.00 0.10 0.10 86 1019.7
20260503034803 8 224 0.0 0.0 0.00 0.10 0.10 86 1019.7
20260503034304 8 224 0.0 0.0 0.00 0.10 0.10 86 1019.7
20260503033803 8 224 0.0 0.0 0.00 0.10 0.10 86 1019.7
20260503033303 8 224 0.0 0.0 0.00 0.10 0.10 86 1019.7
20260503030803 8 224 0.0 0.0 0.00 0.10 0.10 86 1019.8
20260503024304 9 224 0.0 0.0 0.00 0.10 0.10 86 1019.6
20260503023803 9 224 0.0 0.0 0.00 0.10 0.10 86 1019.5
20260503023303 9 224 0.0 0.0 0.00 0.10 0.10 86 1019.4
20260503022803 9 224 0.0 0.0 0.00 0.10 0.10 86 1019.4
20260503022305 9 224 0.0 0.0 0.00 0.10 0.10 86 1019.4
20260503021303 9 224 0.0 0.0 0.00 0.10 0.10 86 1019.5
20260503020304 9 224 0.0 0.0 0.00 0.10 0.10 86 1019.3
20260503015804 10 224 0.0 0.0 0.00 0.10 0.10 86 1019.1
20260503013303 10 224 0.0 0.0 0.00 0.10 0.10 83 1019.0
20260503012305 10 224 0.0 0.0 0.00 0.10 0.10 84 1018.8
20260503011803 10 224 0.0 0.0 0.00 0.10 0.10 84 1018.8
20260503011303 10 224 0.0 0.0 0.00 0.10 0.10 84 1018.7
20260503010803 11 224 0.0 0.0 0.00 0.10 0.10 83 1018.5
20260503005803 11 224 0.0 0.0 0.00 0.10 0.10 83 1018.3
20260503005304 11 224 0.0 0.0 0.00 0.10 0.10 84 1018.3
20260503004303 11 224 0.0 0.0 0.00 0.10 0.10 84 1018.1
20260503003803 11 224 0.0 0.0 0.00 0.10 0.10 84 1018.1
20260503003304 11 224 0.0 0.0 0.00 0.10 0.10 84 1018.2
20260503002804 11 224 0.0 0.0 0.00 0.10 0.10 84 1018.2
20260503002305 11 224 0.0 0.0 0.00 0.10 0.10 84 1018.1
20260503001803 11 224 0.0 0.0 0.00 0.10 0.10 84 1018.0
20260503001304 11 224 0.0 0.0 0.03 0.10 0.10 84 1018.0
20260502235305 11 224 0.0 0.0 0.03 0.10 0.10 82 1017.6
20260502233803 11 224 0.0 0.0 0.03 0.10 0.10 81 1017.6
20260502233304 12 224 0.0 0.0 0.03 0.10 0.10 79 1017.7
20260502231803 12 224 0.0 1.6 0.03 0.10 0.10 75 1017.5
20260502230803 13 51 0.0 4.8 0.00 0.08 0.08 72 1017.4
20260502224803 13 50 0.0 0.0 0.03 0.08 0.08 74 1016.6
20260502224303 13 50 0.0 0.0 0.05 0.08 0.08 74 1016.5
20260502223303 13 50 0.0 0.0 0.08 0.08 0.08 70 1016.4
20260502222305 13 50 0.0 0.0 0.08 0.08 0.08 72 1016.3
20260502220803 14 50 0.0 0.0 0.08 0.08 0.08 71 1016.4
20260502220303 14 50 0.0 0.0 0.08 0.08 0.08 72 1016.3
20260502214303 17 188 0.0 0.0 0.03 0.03 0.03 49 1016.2
20260502212803 18 188 0.0 0.0 0.00 0.00 0.00 41 1015.5
20260502211804 18 188 0.0 0.0 0.00 0.00 0.00 41 1015.4
20260502210803 18 188 0.0 0.0 0.00 0.00 0.00 40 1015.5
20260502210303 18 188 0.0 0.0 0.00 0.00 0.00 36 1015.5
20260502205803 18 188 0.0 0.0 0.00 0.00 0.00 37 1015.5
20260502204303 18 188 0.0 0.0 0.00 0.00 0.00 42 1015.6
20260502203303 18 188 0.0 0.0 0.00 0.00 0.00 38 1015.8
20260502202803 18 188 0.0 0.0 0.00 0.00 0.00 35 1015.9
20260502201303 19 188 0.0 0.0 0.00 0.00 0.00 40 1016.0
20260502200803 19 188 0.0 0.0 0.00 0.00 0.00 38 1016.0
20260502200303 19 188 0.0 0.0 0.00 0.00 0.00 40 1016.1
20260502194803 20 188 0.0 3.2 0.00 0.00 0.00 38 1016.4
20260502194303 20 188 0.0 3.2 0.00 0.00 0.00 43 1016.3
20260502192305 20 248 0.0 0.0 0.00 0.00 0.00 38 1016.4
20260502191803 20 248 0.0 0.0 0.00 0.00 0.00 36 1016.4
20260502191304 20 248 0.0 0.0 0.00 0.00 0.00 38 1016.4
20260502190804 19 248 0.0 0.0 0.00 0.00 0.00 36 1016.5